Location: Stockholm
(59.3293°N, 18.0686°E)
Time: 22:47:17
(UTC+02:00)

Envisat - Visible Passes

Search period start: 22 August 2017 00:00
Search period end: 01 September 2017 00:00
Orbit: 764 x 766 km, 98.2° (Epoch: 22 August)

Date Brightness Start Highest point End Pass type
(mag) Time Alt. Az. Time Alt. Az. Time Alt. Az.
22 Aug 5.7 22:25:30 10° WSW 22:27:48 13° W 22:30:07 10° NW visible
23 Aug 5.3 21:46:32 10° SW 21:50:30 23° W 21:54:30 10° NW visible
24 Aug 4.4 21:08:40 10° SSW 21:13:24 38° W 21:18:11 10° NNW visible
25 Aug 5.6 22:13:33 10° WSW 22:16:31 15° W 22:19:29 10° NW visible
26 Aug 5.1 21:35:01 10° SSW 21:39:17 26° W 21:43:33 10° NNW visible
27 Aug 4.2 20:57:21 10° S 21:02:14 45° W 21:07:08 10° NNW visible
28 Aug 5.5 22:01:48 10° SW 22:05:15 18° W 22:08:43 10° NW visible
29 Aug 4.8 21:23:35 10° SSW 21:28:04 31° W 21:32:35 10° NNW visible
30 Aug 3.8 20:46:06 10° S 20:51:04 53° W 20:56:05 10° NNW visible
30 Aug 5.8 22:29:22 10° WSW 22:31:18 12° WNW 22:33:16 10° NW visible
31 Aug 5.4 21:50:09 10° SW 21:53:59 21° W 21:57:51 10° NW visible
